Location: Boulin
(43.2500°N, 0.1333°E)
Time: 01:07:31
(UTC+00:00)

NOAA 6 - Pass Details

Date: 11 December 2025
Orbit: 767 x 781 km, 98.6° (Epoch: 17 January)

Event Time Altitude Azimuth Distance (km) Brightness Sun altitude
Rises 19:02:35 0° 175° (S) 3,234 7.3 -28.0°
Reaches altitude 10° 19:04:55 10° 179° (S) 2,309 6.5 -28.4°
Maximum altitude 19:09:56 59° 259° (WSW) 885 4.4 -29.3°
Drops below altitude 10° 19:14:59 10° 339° (NNW) 2,318 6.6 -30.2°
Sets 19:17:20 0° 343° (NNW) 3,248 7.4 -30.6°
